DW7098 Weather Reports


time (UTC)temp
C
wind
direction
speed
KPH
gust
KPH
rain 1hr
cm
rain 24hr
cm
rain mn
cm
humidity
%
barometer
mb
20260510013051 18 248 0.0 11.3 0.00 0.00 0.00
20260510010100 18 211 1.6 8.0 0.00 0.00 0.00
20260510003040 19 260 3.2 11.3 0.00 0.00 0.00
20260510000107 20 236 1.6 9.7 0.00 0.00 0.00
20260509233046 21 93 3.2 8.0 0.00 0.00 0.00
20260509230054 21 271 0.0 4.8 0.00 0.00 0.00
20260509223053 21 275 0.0 4.8 0.00 0.00 0.00
20260509220100 21 64 1.6 4.8 0.00 0.00 0.00
20260509213039 21 308 1.6 4.8 0.00 0.00 0.00
20260509210106 21 146 0.0 8.0 0.00 0.00 0.00
20260509203050 19 64 4.8 9.7 0.00 0.00 0.00
20260509200103 18 81 1.6 11.3 0.00 0.00 0.00
20260509193045 18 71 0.0 9.7 0.00 0.00 0.00
20260509180105 16 79 4.8 8.0 0.00 0.00 0.00
20260509173044 16 172 3.2 6.4 0.00 0.00 0.00
20260509160104 13 68 0.0 8.0 0.00 0.00 0.00
20260509150058 11 65 1.6 6.4 0.00 0.00 0.00
20260509133047 11 73 1.6 4.8 0.00 0.00 0.00
20260509130059 11 84 0.0 1.6 0.00 0.00 0.00
20260509123037 11 97 1.6 3.2 0.00 0.00 0.00
20260509110104 11 86 0.0 1.6 0.00 0.00 0.00
20260509103044 11 54 0.0 4.8 0.00 0.00 0.00
20260509100054 11 75 1.6 3.2 0.00 0.00 0.00
20260509093039 11 65 0.0 1.6 0.00 0.00 0.00
20260509090104 11 65 0.0 1.6 0.00 0.00 0.00
20260509083020 11 65 0.0 1.6 0.00 0.00 0.00
20260509080103 11 69 0.0 3.2 0.00 0.00 0.00
20260509073043 11 53 0.0 3.2 0.00 0.00 0.00
20260509070112 11 62 0.0 3.2 0.00 0.00 0.00
20260509063049 11 71 0.0 3.2 0.00 0.00 0.00
20260509060100 12 229 0.0 1.6 0.00 0.00 0.00
20260509053040 11 229 0.0 1.6 0.00 0.00 0.00
20260509050052 11 229 0.0 1.6 0.00 0.00 0.00
20260509043052 12 229 0.0 0.0 0.00 0.00 0.00
20260509040101 12 249 0.0 1.6 0.00 0.00 0.00
20260509033037 12 224 0.0 0.0 0.00 0.00 0.00
20260509030109 12 254 1.6 9.7 0.00 0.00 0.00
20260509023027 13 253 1.6 6.4 0.00 0.00 0.00
20260509020050 13 260 0.0 3.2 0.00 0.00 0.00